Home > Weather > Haywards Heath > Past weeks

Flag for United Kingdom Past Weather in Haywards Heath, England, United Kingdom — Yesterday and Last 2 Weeks

Now
55 °F

Passing clouds.


Feels Like: 52 °F
Forecast: 53 / 65 °F
Wind: 15 mph from West

Location: London / Gatwick Airport

Current Time: Jul 2, 2016 at 8:38:01 AM

Latest Report: Jul 2, 2016 at 7:50 AM


Visibility: N/A

Pressure: 29.92 "Hg

Humidity: 82%

Dew Point: 50 °F

Location of Haywards HeathLocation

Past Weather in Haywards Heath — Graph

°F

Haywards Heath Temperature Yesterday

Maximum temperature yesterday: 66 °F (at 3:50 PM)
Minimum temperature yesterday: 54 °F (at 9:20 PM)
Average temperature yesterday: 60 °F

High & Low Weather Summary for the Past Weeks

 TemperatureHumidityPressure
High72 °F (Jun 27, 3:20 PM)100% (Jun 17, 7:20 AM)30.24 "Hg (Jun 17, 7:20 AM)
Low50 °F (Jun 19, 5:20 AM)49% (Jun 28, 1:20 PM)29.65 "Hg (Jun 17, 7:20 AM)
Average60 °F85%29.99 "Hg
* Reported Jun 17 7:20 AM — Jul 2 7:20 AM, Haywards Heath, Weather by CustomWeather, © 2016

Note: Actual official high and low records may vary slightly from our data, if they occured in-between our weather recording intervals... More about our weather records

Advertising

Haywards Heath Weather History for the Previous 24 Hours

Scroll right to see more
 ConditionsComfort  
Time TempWeatherWind HumidityBarometerVisibility
7:20 AM
Sat, Jul 2
54 °FPassing clouds.9 mph88%29.89 "HgN/A
6:50 AM54 °FSunny.9 mph88%29.89 "Hg10 mi
6:20 AM52 °FSunny.8 mph88%29.89 "Hg10 mi
5:50 AM52 °FSunny.6 mph88%29.89 "Hg10 mi
5:20 AM50 °FClear.6 mph88%29.89 "Hg10 mi
4:50 AM50 °FClear.6 mph88%29.89 "Hg10 mi
4:20 AM50 °FClear.6 mph88%29.86 "Hg10 mi
3:50 AM50 °FClear.7 mph88%29.86 "Hg10 mi
3:20 AM50 °FClear.7 mph88%29.86 "Hg10 mi
2:50 AM50 °FClear.7 mph88%29.86 "Hg10 mi
2:20 AM52 °FClear.7 mph82%29.86 "Hg10 mi
1:50 AM52 °FClear.8 mph88%29.86 "Hg10 mi
1:20 AM52 °FClear.8 mph88%29.86 "Hg10 mi
12:50 AM54 °FClear.8 mph88%29.86 "Hg10 mi
12:20 AM54 °FClear.8 mph88%29.86 "Hg10 mi
11:50 PM
Fri, Jul 1
54 °FClear.7 mph88%29.86 "Hg10 mi
11:20 PM54 °FPassing clouds.6 mph88%29.83 "HgN/A
10:50 PM54 °FPassing clouds.5 mph88%29.83 "HgN/A
10:20 PM55 °FPassing clouds.8 mph88%29.83 "HgN/A
9:50 PM54 °FSunny.5 mph94%29.83 "Hg10 mi
9:20 PM54 °FSunny.7 mph94%29.83 "Hg10 mi
8:50 PM55 °FRain showers. Scattered clouds.14 mph94%29.83 "Hg6 mi
8:20 PM59 °FScattered showers. Scattered clouds.13 mph77%29.80 "HgN/A
7:50 PM61 °FBroken clouds.12 mph72%29.80 "HgN/A
7:20 PM63 °FPassing clouds.13 mph68%29.80 "HgN/A
6:50 PM61 °FPassing clouds.14 mph72%29.80 "HgN/A
6:20 PM63 °FScattered clouds.16 mph64%29.77 "HgN/A
5:50 PM63 °FPartly sunny.15 mph68%29.77 "HgN/A
5:20 PM64 °FPartly sunny.15 mph64%29.77 "HgN/A
4:50 PM64 °FScattered clouds.15 mph68%29.77 "HgN/A
4:20 PM64 °FScattered clouds.14 mph64%29.77 "HgN/A
3:50 PM66 °FBroken clouds.17 mph64%29.77 "HgN/A
3:20 PM63 °FScattered clouds.15 mph73%29.80 "HgN/A
2:50 PM64 °FScattered clouds.16 mph68%29.80 "HgN/A
2:20 PM64 °FBroken clouds.14 mph68%29.80 "HgN/A
1:50 PM64 °FScattered clouds.16 mph73%29.80 "HgN/A
1:20 PM63 °FPartly sunny.14 mph77%29.80 "HgN/A
12:50 PM63 °FPartly sunny.13 mph77%29.80 "HgN/A
12:20 PM63 °FLight rain. Partly sunny.15 mph83%29.80 "Hg4 mi
11:50 AM63 °FScattered clouds.14 mph77%29.80 "HgN/A
11:20 AM63 °FPartly sunny.13 mph83%29.80 "HgN/A
10:50 AM63 °FPartly sunny.10 mph88%29.80 "HgN/A
10:20 AM61 °FBroken clouds.9 mph88%29.83 "HgN/A
9:50 AM61 °FPartly sunny.6 mph88%29.83 "HgN/A
9:20 AM59 °FLight rain. Broken clouds.9 mph94%29.83 "HgN/A
8:50 AM61 °FScattered showers. Broken clouds.9 mph94%29.83 "HgN/A
8:20 AM59 °FDrizzle. Broken clouds.8 mph94%29.80 "HgN/A
Weather by CustomWeather, © 2016

See weather overviewHow to use our weather pages